Startpagina
METAR-TAF:

METAR-TAF

Vliegvelden :

Vlissingen, Nederland

breedte: 51-27N, lengte: 3-36E, hoogte: 10 m

Actueel weer

Dit bericht is 23 minuten geleden gemaakt, om 18:25 UTC
Wind 21 kt uit het westen
Temperatuur 19°C
Vochtigheid 68%
Druk 1006 hPa
Zicht 10 km of meer

METAR: EHFS 271825Z AUTO 26021KT 9999 NSC 19/13 Q1006

Tijdstip: 20:48 (18:48 UTC)


TAF: ontbreekt

Waarnemingen en weersverwachtingen van meer dan 4000 vliegvelden (METAR en TAF).

De beschikbare stations zijn de gele en rode punten op de kaart.

Ga met uw muis naar het station om de naam te zien.

Klik dan om waarnemingen en weersverwachtingen te zien.

kaart wijzigen: klik op de groene knoppen met een zwart kruis om in te zoomen, op de groene knop met een streepje om uit te zoomen of op de groene pijlen voor aangrenzende kaarten.


METAR-TAF: